Terminal Aerodrome Forecast
Issued by NWS

Home | Current Version | Previous Version | Graphics & Text | Print | Product List | Glossary On
Versions: 1 2 3 4 5 6 7 8 9 10 11 12 13 14 15 16 17
103
FTUS43 KMPX 192320
TAFAXN
TAF
KAXN 192320Z 2000/2024 13011KT P6SM VCTS BKN050CB OVC100
      TEMPO 2001/2004 3SM -TSRA BKN030CB
     FM200500 04005KT P6SM SCT250
     FM200800 35007KT P6SM SKC
     FM201900 02006KT P6SM SKC=

USA.gov is the U.S. government's official web portal to all federal, state and local government web resources and services.